owner,sensor,date,latitude,longitude,vertical_datum,wind_speed,wind_to_direction,wind_speed_of_gust,qcFlag 
TCOON,ioos:station:TCOON:003:1,2016-03-01T00:00:00Z,26.8015,-97.4706,0.0,10.7,138.0,12.0,'11111222,11111222,11111222' 
TCOON,ioos:station:TCOON:003:1,2016-03-01T00:06:00Z,26.8015,-97.4706,0.0,10.3,139.0,12.1,'11111222,11111222,11111222' 
TCOON,ioos:station:TCOON:003:1,2016-03-01T00:12:00Z,26.8015,-97.4706,0.0,11.0,139.0,12.1,'11111222,11111222,11111222' 
TCOON,ioos:station:TCOON:003:1,2016-03-01T00:18:00Z,26.8015,-97.4706,0.0,10.7,141.0,12.2,'11111222,11111222,11111222' 
TCOON,ioos:station:TCOON:003:1,2016-03-01T00:24:00Z,26.8015,-97.4706,0.0,11.1,142.0,12.9,'11111222,11111222,11111222' 
TCOON,ioos:station:TCOON:003:1,2016-03-01T00:30:00Z,26.8015,-97.4706,0.0,11.1,142.0,12.9,'1111122,1111122,1111122' 
TCOON,ioos:station:TCOON:003:1,2016-03-01T00:36:00Z,26.8015,-97.4706,0.0,11.2,140.0,12.5,'11111222,11111222,11111222' 
TCOON,ioos:station:TCOON:003:1,2016-03-01T00:42:00Z,26.8015,-97.4706,0.0,10.5,141.0,13.0,'11111222,11111222,11111222' 
TCOON,ioos:station:TCOON:003:1,2016-03-01T00:48:00Z,26.8015,-97.4706,0.0,11.4,141.0,12.7,'11111222,11111222,11111222' 
TCOON,ioos:station:TCOON:003:1,2016-03-01T00:54:00Z,26.8015,-97.4706,0.0,10.7,141.0,12.4,'11111222,11111222,11111222' 
TCOON,ioos:station:TCOON:003:1,2016-03-01T01:00:00Z,26.8015,-97.4706,0.0,10.0,138.0,13.0,'11111222,11111222,11111222' 
TCOON,ioos:station:TCOON:003:1,2016-03-01T01:06:00Z,26.8015,-97.4706,0.0,10.5,139.0,12.2,'11111222,11111222,11111222' 
TCOON,ioos:station:TCOON:003:1,2016-03-01T01:12:00Z,26.8015,-97.4706,0.0,10.0,140.0,12.3,'11111222,11111222,11111222' 
TCOON,ioos:station:TCOON:003:1,2016-03-01T01:18:00Z,26.8015,-97.4706,0.0,10.5,140.0,12.1,'11111222,11111222,11111222' 
TCOON,ioos:station:TCOON:003:1,2016-03-01T01:24:00Z,26.8015,-97.4706,0.0,9.9,141.0,12.1,'11111222,11111222,11111222' 
TCOON,ioos:station:TCOON:003:1,2016-03-01T01:30:00Z,26.8015,-97.4706,0.0,9.5,139.0,11.2,'11111222,11111222,11111222' 
TCOON,ioos:station:TCOON:003:1,2016-03-01T02:18:00Z,26.8015,-97.4706,0.0,9.4,136.0,11.3,'1111122,1111122,1111122' 
TCOON,ioos:station:TCOON:003:1,2016-03-01T03:18:00Z,26.8015,-97.4706,0.0,9.2,140.0,10.9,'1111122,1111122,1111122' 
TCOON,ioos:station:TCOON:003:1,2016-03-01T04:24:00Z,26.8015,-97.4706,0.0,8.8,145.0,10.7,'1111122,1111122,1111122' 
TCOON,ioos:station:TCOON:003:1,2016-03-01T09:18:00Z,26.8015,-97.4706,0.0,10.6,169.0,11.9,'1111122,1111122,1111122' 
TCOON,ioos:station:TCOON:003:1,2016-03-01T10:18:00Z,26.8015,-97.4706,0.0,9.6,178.0,11.2,'1111122,1111122,1111122' 
TCOON,ioos:station:TCOON:003:1,2016-03-01T10:54:00Z,26.8015,-97.4706,0.0,6.4,188.0,7.7,'11111222,11111222,11111222' 
TCOON,ioos:station:TCOON:003:1,2016-03-01T11:00:00Z,26.8015,-97.4706,0.0,6.5,189.0,8.1,'11111222,11111222,11111222' 
TCOON,ioos:station:TCOON:003:1,2016-03-01T11:06:00Z,26.8015,-97.4706,0.0,5.8,192.0,7.2,'11111222,11111222,11111222' 
TCOON,ioos:station:TCOON:003:1,2016-03-01T11:12:00Z,26.8015,-97.4706,0.0,5.8,191.0,7.1,'11111222,11111222,11111222' 
TCOON,ioos:station:TCOON:003:1,2016-03-01T11:18:00Z,26.8015,-97.4706,0.0,5.8,191.0,7.1,'1111122,1111122,1111122' 
TCOON,ioos:station:TCOON:003:1,2016-03-01T11:24:00Z,26.8015,-97.4706,0.0,6.4,196.0,8.1,'11111222,11111222,11111222' 
TCOON,ioos:station:TCOON:003:1,2016-03-01T11:30:00Z,26.8015,-97.4706,0.0,5.3,195.0,6.8,'11111222,11111222,11111222' 
TCOON,ioos:station:TCOON:003:1,2016-03-01T11:36:00Z,26.8015,-97.4706,0.0,4.8,190.0,6.4,'11111222,11111222,11111222' 
TCOON,ioos:station:TCOON:003:1,2016-03-01T11:42:00Z,26.8015,-97.4706,0.0,4.9,193.0,5.5,'11111222,11111222,11111222' 
TCOON,ioos:station:TCOON:003:1,2016-03-01T11:48:00Z,26.8015,-97.4706,0.0,4.1,191.0,5.8,'11111222,11111222,11111222' 
TCOON,ioos:station:TCOON:003:1,2016-03-01T11:54:00Z,26.8015,-97.4706,0.0,4.2,187.0,4.8,'11111222,11111222,11111222' 
TCOON,ioos:station:TCOON:003:1,2016-03-01T12:00:00Z,26.8015,-97.4706,0.0,3.6,186.0,4.7,'11111222,11111222,11111222' 
TCOON,ioos:station:TCOON:003:1,2016-03-01T12:06:00Z,26.8015,-97.4706,0.0,3.7,185.0,4.4,'11111222,11111222,11111222' 
TCOON,ioos:station:TCOON:003:1,2016-03-01T12:12:00Z,26.8015,-97.4706,0.0,3.7,184.0,4.9,'11111222,11111222,11111222' 
TCOON,ioos:station:TCOON:003:1,2016-03-01T12:18:00Z,26.8015,-97.4706,0.0,3.7,184.0,4.9,'1111122,1111122,1111122' 
TCOON,ioos:station:TCOON:003:1,2016-03-01T12:24:00Z,26.8015,-97.4706,0.0,4.0,190.0,5.2,'11111222,11111222,11111222' 
TCOON,ioos:station:TCOON:003:1,2016-03-01T12:30:00Z,26.8015,-97.4706,0.0,4.5,182.0,6.0,'11111222,11111222,11111222' 
TCOON,ioos:station:TCOON:003:1,2016-03-01T12:36:00Z,26.8015,-97.4706,0.0,4.8,179.0,5.8,'11111222,11111222,11111222' 
TCOON,ioos:station:TCOON:003:1,2016-03-01T12:42:00Z,26.8015,-97.4706,0.0,4.3,167.0,5.6,'11111222,11111222,11111222' 
TCOON,ioos:station:TCOON:003:1,2016-03-01T12:48:00Z,26.8015,-97.4706,0.0,4.2,163.0,5.3,'11111222,11111222,11111222' 
TCOON,ioos:station:TCOON:003:1,2016-03-01T12:54:00Z,26.8015,-97.4706,0.0,4.2,160.0,4.8,'11111222,11111222,11111222' 
TCOON,ioos:station:TCOON:003:1,2016-03-01T13:00:00Z,26.8015,-97.4706,0.0,4.4,159.0,4.9,'11111222,11111222,11111222' 
TCOON,ioos:station:TCOON:003:1,2016-03-01T13:06:00Z,26.8015,-97.4706,0.0,4.2,158.0,5.0,'11111222,11111222,11111222' 
TCOON,ioos:station:TCOON:003:1,2016-03-01T13:12:00Z,26.8015,-97.4706,0.0,4.5,166.0,5.1,'11111222,11111222,11111222' 
TCOON,ioos:station:TCOON:003:1,2016-03-01T13:18:00Z,26.8015,-97.4706,0.0,4.5,166.0,5.1,'1111122,1111122,1111122' 
TCOON,ioos:station:TCOON:003:1,2016-03-01T13:24:00Z,26.8015,-97.4706,0.0,5.7,161.0,6.8,'11111222,11111222,11111222' 
TCOON,ioos:station:TCOON:003:1,2016-03-01T13:30:00Z,26.8015,-97.4706,0.0,6.0,151.0,6.6,'11111222,11111222,11111222' 
TCOON,ioos:station:TCOON:003:1,2016-03-01T13:36:00Z,26.8015,-97.4706,0.0,6.0,147.0,6.6,'11111222,11111222,11111222' 
TCOON,ioos:station:TCOON:003:1,2016-03-01T13:42:00Z,26.8015,-97.4706,0.0,5.9,141.0,6.7,'11111222,11111222,11111222' 
TCOON,ioos:station:TCOON:003:1,2016-03-01T13:48:00Z,26.8015,-97.4706,0.0,6.6,144.0,7.2,'11111222,11111222,11111222' 
TCOON,ioos:station:TCOON:003:1,2016-03-01T13:54:00Z,26.8015,-97.4706,0.0,6.4,149.0,8.0,'11111222,11111222,11111222' 
TCOON,ioos:station:TCOON:003:1,2016-03-01T14:00:00Z,26.8015,-97.4706,0.0,4.7,150.0,7.1,'11111222,11111222,11111222' 
TCOON,ioos:station:TCOON:003:1,2016-03-01T15:00:00Z,26.8015,-97.4706,0.0,5.5,148.0,6.2,'11111222,11111222,11111222' 
TCOON,ioos:station:TCOON:003:1,2016-03-01T15:06:00Z,26.8015,-97.4706,0.0,5.0,150.0,5.8,'11111222,11111222,11111222' 
TCOON,ioos:station:TCOON:003:1,2016-03-01T15:12:00Z,26.8015,-97.4706,0.0,3.0,152.0,5.7,'11111222,11111222,11111222' 
TCOON,ioos:station:TCOON:003:1,2016-03-01T15:24:00Z,26.8015,-97.4706,0.0,1.7,233.0,1.9,'11111222,11111222,11111222' 
TCOON,ioos:station:TCOON:003:1,2016-03-01T15:30:00Z,26.8015,-97.4706,0.0,0.5,227.0,1.6,'11111222,11111222,11111222' 
TCOON,ioos:station:TCOON:003:1,2016-03-01T15:36:00Z,26.8015,-97.4706,0.0,0.4,124.0,0.9,'11111222,11111222,11111222' 
TCOON,ioos:station:TCOON:003:1,2016-03-01T15:42:00Z,26.8015,-97.4706,0.0,0.4,124.0,0.9,'1111122,1111122,1111122' 
TCOON,ioos:station:TCOON:003:1,2016-03-01T15:48:00Z,26.8015,-97.4706,0.0,0.6,50.0,0.7,'11111222,11111222,11111222' 
TCOON,ioos:station:TCOON:003:1,2016-03-01T15:54:00Z,26.8015,-97.4706,0.0,0.5,56.0,0.8,'11111222,11111222,11111222' 
TCOON,ioos:station:TCOON:003:1,2016-03-01T16:00:00Z,26.8015,-97.4706,0.0,1.6,62.0,1.9,'11111222,11111222,11111222' 
TCOON,ioos:station:TCOON:003:1,2016-03-01T16:06:00Z,26.8015,-97.4706,0.0,0.6,30.0,1.8,'11111222,11111222,11111222' 
TCOON,ioos:station:TCOON:003:1,2016-03-01T16:12:00Z,26.8015,-97.4706,0.0,1.9,127.0,2.2,'11111222,11111222,11111222' 
TCOON,ioos:station:TCOON:003:1,2016-03-01T16:18:00Z,26.8015,-97.4706,0.0,1.9,127.0,2.2,'1111122,1111122,1111122' 
TCOON,ioos:station:TCOON:003:1,2016-03-01T16:24:00Z,26.8015,-97.4706,0.0,0.3,72.0,0.7,'11111222,11111222,11111222' 
TCOON,ioos:station:TCOON:003:1,2016-03-01T16:30:00Z,26.8015,-97.4706,0.0,0.0,121.0,0.6,'11111222,11111222,11111222' 
TCOON,ioos:station:TCOON:003:1,2016-03-01T16:36:00Z,26.8015,-97.4706,0.0,1.1,176.0,2.5,'11111222,11111222,11111222' 
TCOON,ioos:station:TCOON:003:1,2016-03-01T16:42:00Z,26.8015,-97.4706,0.0,1.0,170.0,1.9,'11111222,11111222,11111222' 
TCOON,ioos:station:TCOON:003:1,2016-03-01T16:48:00Z,26.8015,-97.4706,0.0,4.1,205.0,4.8,'11111222,11111222,11111222' 
TCOON,ioos:station:TCOON:003:1,2016-03-01T16:54:00Z,26.8015,-97.4706,0.0,4.3,203.0,5.4,'11111222,11111222,11111222' 
TCOON,ioos:station:TCOON:003:1,2016-03-01T17:00:00Z,26.8015,-97.4706,0.0,4.3,202.0,7.1,'11111222,11111222,11111222' 
TCOON,ioos:station:TCOON:003:1,2016-03-01T17:06:00Z,26.8015,-97.4706,0.0,5.4,209.0,6.8,'11111222,11111222,11111222' 
TCOON,ioos:station:TCOON:003:1,2016-03-01T17:12:00Z,26.8015,-97.4706,0.0,5.4,195.0,6.7,'11111222,11111222,11111222' 
TCOON,ioos:station:TCOON:003:1,2016-03-01T17:18:00Z,26.8015,-97.4706,0.0,5.4,195.0,6.7,'1111122,1111122,1111122' 
TCOON,ioos:station:TCOON:003:1,2016-03-01T17:24:00Z,26.8015,-97.4706,0.0,5.8,190.0,7.3,'11111222,11111222,11111222' 
TCOON,ioos:station:TCOON:003:1,2016-03-01T17:30:00Z,26.8015,-97.4706,0.0,6.0,216.0,6.9,'11111222,11111222,11111222' 
TCOON,ioos:station:TCOON:003:1,2016-03-01T17:36:00Z,26.8015,-97.4706,0.0,5.4,205.0,7.1,'11111222,11111222,11111222' 
TCOON,ioos:station:TCOON:003:1,2016-03-01T17:42:00Z,26.8015,-97.4706,0.0,4.1,237.0,8.3,'11111222,11111222,11111222' 
TCOON,ioos:station:TCOON:003:1,2016-03-01T17:48:00Z,26.8015,-97.4706,0.0,5.8,205.0,7.8,'11111222,11111222,11111222' 
TCOON,ioos:station:TCOON:003:1,2016-03-01T17:54:00Z,26.8015,-97.4706,0.0,5.6,196.0,7.7,'11111222,11111222,11111222' 
TCOON,ioos:station:TCOON:003:1,2016-03-01T18:00:00Z,26.8015,-97.4706,0.0,4.7,210.0,6.5,'11111222,11111222,11111222' 
TCOON,ioos:station:TCOON:003:1,2016-03-01T18:06:00Z,26.8015,-97.4706,0.0,4.9,222.0,6.1,'11111222,11111222,11111222' 
TCOON,ioos:station:TCOON:003:1,2016-03-01T18:12:00Z,26.8015,-97.4706,0.0,3.3,222.0,5.4,'11111222,11111222,11111222' 
TCOON,ioos:station:TCOON:003:1,2016-03-01T18:18:00Z,26.8015,-97.4706,0.0,3.3,222.0,5.4,'1111122,1111122,1111122' 
TCOON,ioos:station:TCOON:003:1,2016-03-01T18:24:00Z,26.8015,-97.4706,0.0,5.5,214.0,6.7,'11111222,11111222,11111222' 
TCOON,ioos:station:TCOON:003:1,2016-03-01T18:30:00Z,26.8015,-97.4706,0.0,5.7,183.0,8.1,'11111222,11111222,11111222' 
TCOON,ioos:station:TCOON:003:1,2016-03-01T18:36:00Z,26.8015,-97.4706,0.0,5.3,180.0,8.4,'11111222,11111222,11111222' 
TCOON,ioos:station:TCOON:003:1,2016-03-01T18:42:00Z,26.8015,-97.4706,0.0,5.7,181.0,6.9,'11111222,11111222,11111222' 
TCOON,ioos:station:TCOON:003:1,2016-03-01T18:48:00Z,26.8015,-97.4706,0.0,5.5,146.0,7.5,'11111222,11111222,11111222' 
TCOON,ioos:station:TCOON:003:1,2016-03-01T18:54:00Z,26.8015,-97.4706,0.0,5.7,147.0,6.7,'11111222,11111222,11111222' 
TCOON,ioos:station:TCOON:003:1,2016-03-01T19:00:00Z,26.8015,-97.4706,0.0,5.7,142.0,6.5,'11111222,11111222,11111222' 
TCOON,ioos:station:TCOON:003:1,2016-03-01T19:06:00Z,26.8015,-97.4706,0.0,5.8,143.0,6.7,'11111222,11111222,11111222' 
TCOON,ioos:station:TCOON:003:1,2016-03-01T19:12:00Z,26.8015,-97.4706,0.0,4.8,140.0,7.8,'11111222,11111222,11111222' 
TCOON,ioos:station:TCOON:003:1,2016-03-01T19:18:00Z,26.8015,-97.4706,0.0,5.2,143.0,6.6,'11111222,11111222,11111222' 
TCOON,ioos:station:TCOON:003:1,2016-03-01T19:24:00Z,26.8015,-97.4706,0.0,6.6,143.0,7.7,'11111222,11111222,11111222' 
TCOON,ioos:station:TCOON:003:1,2016-03-01T19:30:00Z,26.8015,-97.4706,0.0,5.2,143.0,7.4,'11111222,11111222,11111222' 
TCOON,ioos:station:TCOON:003:1,2016-03-01T19:36:00Z,26.8015,-97.4706,0.0,6.6,143.0,7.9,'11111222,11111222,11111222' 
TCOON,ioos:station:TCOON:003:1,2016-03-01T19:42:00Z,26.8015,-97.4706,0.0,6.6,143.0,7.9,'1111122,1111122,1111122' 
TCOON,ioos:station:TCOON:003:1,2016-03-01T19:48:00Z,26.8015,-97.4706,0.0,7.2,142.0,7.9,'11111222,11111222,11111222' 
TCOON,ioos:station:TCOON:003:1,2016-03-01T19:54:00Z,26.8015,-97.4706,0.0,6.8,144.0,8.3,'11111222,11111222,11111222' 
TCOON,ioos:station:TCOON:003:1,2016-03-01T20:00:00Z,26.8015,-97.4706,0.0,7.0,146.0,8.0,'11111222,11111222,11111222' 
TCOON,ioos:station:TCOON:003:1,2016-03-01T20:06:00Z,26.8015,-97.4706,0.0,6.4,145.0,7.5,'11111222,11111222,11111222' 
TCOON,ioos:station:TCOON:003:1,2016-03-01T20:12:00Z,26.8015,-97.4706,0.0,6.1,142.0,6.9,'11111222,11111222,11111222' 
TCOON,ioos:station:TCOON:003:1,2016-03-01T20:18:00Z,26.8015,-97.4706,0.0,6.0,142.0,7.1,'11111222,11111222,11111222' 
TCOON,ioos:station:TCOON:003:1,2016-03-01T20:24:00Z,26.8015,-97.4706,0.0,6.4,140.0,7.6,'11111222,11111222,11111222' 
TCOON,ioos:station:TCOON:003:1,2016-03-01T20:30:00Z,26.8015,-97.4706,0.0,6.4,140.0,7.6,'1111122,1111122,1111122' 
TCOON,ioos:station:TCOON:003:1,2016-03-01T20:36:00Z,26.8015,-97.4706,0.0,6.8,142.0,8.2,'11111222,11111222,11111222' 
TCOON,ioos:station:TCOON:003:1,2016-03-01T20:42:00Z,26.8015,-97.4706,0.0,6.7,147.0,7.7,'11111222,11111222,11111222' 
TCOON,ioos:station:TCOON:003:1,2016-03-01T20:48:00Z,26.8015,-97.4706,0.0,5.5,150.0,6.8,'11111222,11111222,11111222' 
TCOON,ioos:station:TCOON:003:1,2016-03-01T20:54:00Z,26.8015,-97.4706,0.0,5.0,146.0,6.3,'11111222,11111222,11111222' 
TCOON,ioos:station:TCOON:003:1,2016-03-01T21:00:00Z,26.8015,-97.4706,0.0,5.5,144.0,6.7,'11111222,11111222,11111222' 
TCOON,ioos:station:TCOON:003:1,2016-03-01T21:06:00Z,26.8015,-97.4706,0.0,6.1,142.0,6.7,'11111222,11111222,11111222' 
TCOON,ioos:station:TCOON:003:1,2016-03-01T21:12:00Z,26.8015,-97.4706,0.0,5.1,140.0,6.3,'11111222,11111222,11111222' 
TCOON,ioos:station:TCOON:003:1,2016-03-01T21:18:00Z,26.8015,-97.4706,0.0,5.8,143.0,6.6,'11111222,11111222,11111222' 
TCOON,ioos:station:TCOON:003:1,2016-03-01T21:24:00Z,26.8015,-97.4706,0.0,5.8,143.0,6.6,'1111122,1111122,1111122' 
TCOON,ioos:station:TCOON:003:1,2016-03-01T21:30:00Z,26.8015,-97.4706,0.0,5.8,144.0,7.1,'11111222,11111222,11111222' 
TCOON,ioos:station:TCOON:003:1,2016-03-01T21:36:00Z,26.8015,-97.4706,0.0,6.3,145.0,7.0,'11111222,11111222,11111222' 
TCOON,ioos:station:TCOON:003:1,2016-03-01T21:42:00Z,26.8015,-97.4706,0.0,5.8,146.0,7.4,'11111222,11111222,11111222' 
TCOON,ioos:station:TCOON:003:1,2016-03-01T21:48:00Z,26.8015,-97.4706,0.0,6.1,146.0,7.1,'11111222,11111222,11111222' 
TCOON,ioos:station:TCOON:003:1,2016-03-01T21:54:00Z,26.8015,-97.4706,0.0,5.7,145.0,6.5,'11111222,11111222,11111222' 
TCOON,ioos:station:TCOON:003:1,2016-03-01T22:00:00Z,26.8015,-97.4706,0.0,6.6,148.0,7.2,'11111222,11111222,11111222' 
TCOON,ioos:station:TCOON:003:1,2016-03-01T22:06:00Z,26.8015,-97.4706,0.0,6.7,153.0,7.4,'11111222,11111222,11111222' 
TCOON,ioos:station:TCOON:003:1,2016-03-01T22:12:00Z,26.8015,-97.4706,0.0,7.1,154.0,7.9,'11111222,11111222,11111222' 
TCOON,ioos:station:TCOON:003:1,2016-03-01T22:18:00Z,26.8015,-97.4706,0.0,6.4,151.0,7.6,'11111222,11111222,11111222' 
TCOON,ioos:station:TCOON:003:1,2016-03-01T22:24:00Z,26.8015,-97.4706,0.0,6.4,151.0,7.6,'1111122,1111122,1111122' 
TCOON,ioos:station:TCOON:003:1,2016-03-01T22:30:00Z,26.8015,-97.4706,0.0,6.7,143.0,7.6,'11111222,11111222,11111222' 
TCOON,ioos:station:TCOON:003:1,2016-03-01T22:36:00Z,26.8015,-97.4706,0.0,7.4,145.0,8.2,'11111222,11111222,11111222' 
TCOON,ioos:station:TCOON:003:1,2016-03-01T22:42:00Z,26.8015,-97.4706,0.0,7.9,145.0,9.2,'11111222,11111222,11111222' 
TCOON,ioos:station:TCOON:003:1,2016-03-01T22:48:00Z,26.8015,-97.4706,0.0,7.3,141.0,10.2,'11111222,11111222,11111222' 
TCOON,ioos:station:TCOON:003:1,2016-03-01T22:54:00Z,26.8015,-97.4706,0.0,7.7,141.0,8.5,'11111222,11111222,11111222' 
TCOON,ioos:station:TCOON:003:1,2016-03-01T23:00:00Z,26.8015,-97.4706,0.0,6.9,147.0,8.7,'11111222,11111222,11111222' 
TCOON,ioos:station:TCOON:003:1,2016-03-01T23:06:00Z,26.8015,-97.4706,0.0,8.0,153.0,9.0,'11111222,11111222,11111222' 
TCOON,ioos:station:TCOON:003:1,2016-03-01T23:12:00Z,26.8015,-97.4706,0.0,8.7,154.0,10.4,'11111222,11111222,11111222' 
TCOON,ioos:station:TCOON:003:1,2016-03-01T23:18:00Z,26.8015,-97.4706,0.0,8.7,154.0,10.4,'1111122,1111122,1111122' 
TCOON,ioos:station:TCOON:003:1,2016-03-01T23:24:00Z,26.8015,-97.4706,0.0,7.6,148.0,8.6,'11111222,11111222,11111222' 
TCOON,ioos:station:TCOON:003:1,2016-03-01T23:30:00Z,26.8015,-97.4706,0.0,6.6,145.0,8.2,'11111222,11111222,11111222' 
TCOON,ioos:station:TCOON:003:1,2016-03-01T23:36:00Z,26.8015,-97.4706,0.0,6.5,143.0,8.3,'11111222,11111222,11111222' 
TCOON,ioos:station:TCOON:003:1,2016-03-01T23:42:00Z,26.8015,-97.4706,0.0,8.4,149.0,9.7,'11111222,11111222,11111222' 
TCOON,ioos:station:TCOON:003:1,2016-03-01T23:48:00Z,26.8015,-97.4706,0.0,8.8,147.0,9.5,'11111222,11111222,11111222' 
TCOON,ioos:station:TCOON:003:1,2016-03-01T23:54:00Z,26.8015,-97.4706,0.0,8.4,148.0,9.9,'11111222,11111222,11111222' 
TCOON,ioos:station:TCOON:003:1,2016-03-02T00:00:00Z,26.8015,-97.4706,0.0,8.6,149.0,10.4,'11111222,11111222,11111222' 
TCOON,ioos:station:TCOON:003:1,2016-03-02T00:06:00Z,26.8015,-97.4706,0.0,9.1,152.0,10.3,'11111222,11111222,11111222' 
TCOON,ioos:station:TCOON:003:1,2016-03-02T00:12:00Z,26.8015,-97.4706,0.0,8.4,149.0,10.1,'11111222,11111222,11111222' 
TCOON,ioos:station:TCOON:003:1,2016-03-02T00:18:00Z,26.8015,-97.4706,0.0,8.4,149.0,10.1,'1111122,1111122,1111122' 
TCOON,ioos:station:TCOON:003:1,2016-03-02T00:24:00Z,26.8015,-97.4706,0.0,8.1,148.0,10.1,'11111222,11111222,11111222' 
TCOON,ioos:station:TCOON:003:1,2016-03-02T00:30:00Z,26.8015,-97.4706,0.0,8.2,149.0,10.0,'11111222,11111222,11111222' 
TCOON,ioos:station:TCOON:003:1,2016-03-02T00:36:00Z,26.8015,-97.4706,0.0,7.7,143.0,9.3,'11111222,11111222,11111222' 
TCOON,ioos:station:TCOON:003:1,2016-03-02T00:42:00Z,26.8015,-97.4706,0.0,7.1,143.0,8.1,'11111222,11111222,11111222' 
TCOON,ioos:station:TCOON:003:1,2016-03-02T00:48:00Z,26.8015,-97.4706,0.0,6.8,141.0,8.1,'11111222,11111222,11111222' 
TCOON,ioos:station:TCOON:003:1,2016-03-02T00:54:00Z,26.8015,-97.4706,0.0,7.0,141.0,7.9,'11111222,11111222,11111222' 
TCOON,ioos:station:TCOON:003:1,2016-03-02T01:00:00Z,26.8015,-97.4706,0.0,8.0,142.0,8.8,'11111222,11111222,11111222' 
TCOON,ioos:station:TCOON:003:1,2016-03-02T01:06:00Z,26.8015,-97.4706,0.0,7.1,146.0,8.8,'11111222,11111222,11111222' 
TCOON,ioos:station:TCOON:003:1,2016-03-02T01:12:00Z,26.8015,-97.4706,0.0,6.7,142.0,8.5,'11111222,11111222,11111222' 
TCOON,ioos:station:TCOON:003:1,2016-03-02T01:18:00Z,26.8015,-97.4706,0.0,7.4,142.0,8.5,'11111222,11111222,11111222' 
TCOON,ioos:station:TCOON:003:1,2016-03-02T01:24:00Z,26.8015,-97.4706,0.0,7.4,142.0,8.5,'1111122,1111122,1111122' 
TCOON,ioos:station:TCOON:003:1,2016-03-02T01:30:00Z,26.8015,-97.4706,0.0,8.0,142.0,9.1,'11111222,11111222,11111222' 
TCOON,ioos:station:TCOON:003:1,2016-03-02T01:36:00Z,26.8015,-97.4706,0.0,7.7,142.0,8.8,'11111222,11111222,11111222' 
TCOON,ioos:station:TCOON:003:1,2016-03-02T01:42:00Z,26.8015,-97.4706,0.0,7.8,144.0,8.8,'11111222,11111222,11111222' 
TCOON,ioos:station:TCOON:003:1,2016-03-02T01:48:00Z,26.8015,-97.4706,0.0,7.6,141.0,8.5,'11111222,11111222,11111222' 
TCOON,ioos:station:TCOON:003:1,2016-03-02T01:54:00Z,26.8015,-97.4706,0.0,7.0,141.0,8.5,'11111222,11111222,11111222' 
TCOON,ioos:station:TCOON:003:1,2016-03-02T02:00:00Z,26.8015,-97.4706,0.0,7.9,144.0,9.2,'11111222,11111222,11111222' 
TCOON,ioos:station:TCOON:003:1,2016-03-02T02:06:00Z,26.8015,-97.4706,0.0,7.3,145.0,9.2,'11111222,11111222,11111222' 
TCOON,ioos:station:TCOON:003:1,2016-03-02T02:12:00Z,26.8015,-97.4706,0.0,7.8,145.0,9.0,'11111222,11111222,11111222' 
TCOON,ioos:station:TCOON:003:1,2016-03-02T02:18:00Z,26.8015,-97.4706,0.0,7.8,145.0,9.0,'1111122,1111122,1111122' 
TCOON,ioos:station:TCOON:003:1,2016-03-02T02:24:00Z,26.8015,-97.4706,0.0,7.3,147.0,8.7,'11111222,11111222,11111222' 
TCOON,ioos:station:TCOON:003:1,2016-03-02T02:30:00Z,26.8015,-97.4706,0.0,7.7,146.0,8.8,'11111222,11111222,11111222' 
TCOON,ioos:station:TCOON:003:1,2016-03-02T02:36:00Z,26.8015,-97.4706,0.0,7.2,147.0,8.7,'11111222,11111222,11111222' 
TCOON,ioos:station:TCOON:003:1,2016-03-02T02:42:00Z,26.8015,-97.4706,0.0,7.3,146.0,8.4,'11111222,11111222,11111222' 
TCOON,ioos:station:TCOON:003:1,2016-03-02T02:48:00Z,26.8015,-97.4706,0.0,7.1,148.0,8.6,'11111222,11111222,11111222' 
TCOON,ioos:station:TCOON:003:1,2016-03-02T02:54:00Z,26.8015,-97.4706,0.0,7.7,148.0,9.0,'11111222,11111222,11111222' 
TCOON,ioos:station:TCOON:003:1,2016-03-02T03:00:00Z,26.8015,-97.4706,0.0,7.2,149.0,8.4,'11111222,11111222,11111222' 
TCOON,ioos:station:TCOON:003:1,2016-03-02T03:06:00Z,26.8015,-97.4706,0.0,7.9,149.0,8.9,'11111222,11111222,11111222' 
TCOON,ioos:station:TCOON:003:1,2016-03-02T03:12:00Z,26.8015,-97.4706,0.0,6.7,148.0,8.5,'11111222,11111222,11111222' 
TCOON,ioos:station:TCOON:003:1,2016-03-02T03:18:00Z,26.8015,-97.4706,0.0,7.0,148.0,8.3,'11111222,11111222,11111222' 
TCOON,ioos:station:TCOON:003:1,2016-03-02T03:24:00Z,26.8015,-97.4706,0.0,7.0,148.0,8.3,'1111122,1111122,1111122' 
TCOON,ioos:station:TCOON:003:1,2016-03-02T03:30:00Z,26.8015,-97.4706,0.0,6.9,147.0,7.8,'11111222,11111222,11111222' 
TCOON,ioos:station:TCOON:003:1,2016-03-02T03:36:00Z,26.8015,-97.4706,0.0,6.6,146.0,7.4,'11111222,11111222,11111222' 
TCOON,ioos:station:TCOON:003:1,2016-03-02T03:42:00Z,26.8015,-97.4706,0.0,5.9,146.0,7.1,'11111222,11111222,11111222' 
TCOON,ioos:station:TCOON:003:1,2016-03-02T03:48:00Z,26.8015,-97.4706,0.0,5.6,145.0,6.7,'11111222,11111222,11111222' 
TCOON,ioos:station:TCOON:003:1,2016-03-02T03:54:00Z,26.8015,-97.4706,0.0,5.6,143.0,6.7,'11111222,11111222,11111222' 
TCOON,ioos:station:TCOON:003:1,2016-03-02T04:00:00Z,26.8015,-97.4706,0.0,5.3,140.0,6.5,'11111222,11111222,11111222' 
TCOON,ioos:station:TCOON:003:1,2016-03-02T04:06:00Z,26.8015,-97.4706,0.0,5.3,140.0,6.2,'11111222,11111222,11111222' 
TCOON,ioos:station:TCOON:003:1,2016-03-02T04:12:00Z,26.8015,-97.4706,0.0,5.3,134.0,6.6,'11111222,11111222,11111222' 
TCOON,ioos:station:TCOON:003:1,2016-03-02T04:18:00Z,26.8015,-97.4706,0.0,5.3,136.0,6.1,'11111222,11111222,11111222' 
TCOON,ioos:station:TCOON:003:1,2016-03-02T04:24:00Z,26.8015,-97.4706,0.0,5.3,136.0,6.1,'1111122,1111122,1111122' 
TCOON,ioos:station:TCOON:003:1,2016-03-02T04:30:00Z,26.8015,-97.4706,0.0,4.6,134.0,5.8,'11111222,11111222,11111222' 
TCOON,ioos:station:TCOON:003:1,2016-03-02T04:36:00Z,26.8015,-97.4706,0.0,4.2,134.0,5.2,'11111222,11111222,11111222' 
TCOON,ioos:station:TCOON:003:1,2016-03-02T04:42:00Z,26.8015,-97.4706,0.0,4.4,140.0,5.3,'11111222,11111222,11111222' 
TCOON,ioos:station:TCOON:003:1,2016-03-02T04:48:00Z,26.8015,-97.4706,0.0,4.0,120.0,5.4,'11111222,11111222,11111222' 
TCOON,ioos:station:TCOON:003:1,2016-03-02T04:54:00Z,26.8015,-97.4706,0.0,3.4,111.0,4.7,'11111222,11111222,11111222' 
TCOON,ioos:station:TCOON:003:1,2016-03-02T05:00:00Z,26.8015,-97.4706,0.0,3.7,128.0,4.6,'11111222,11111222,11111222' 
TCOON,ioos:station:TCOON:003:1,2016-03-02T05:06:00Z,26.8015,-97.4706,0.0,4.1,132.0,4.7,'11111222,11111222,11111222' 
TCOON,ioos:station:TCOON:003:1,2016-03-02T05:12:00Z,26.8015,-97.4706,0.0,4.0,134.0,4.6,'11111222,11111222,11111222' 
TCOON,ioos:station:TCOON:003:1,2016-03-02T05:18:00Z,26.8015,-97.4706,0.0,4.2,131.0,4.7,'11111222,11111222,11111222' 
TCOON,ioos:station:TCOON:003:1,2016-03-02T05:24:00Z,26.8015,-97.4706,0.0,4.2,142.0,4.8,'11111222,11111222,11111222' 
TCOON,ioos:station:TCOON:003:1,2016-03-02T05:30:00Z,26.8015,-97.4706,0.0,4.3,144.0,4.9,'11111222,11111222,11111222' 
TCOON,ioos:station:TCOON:003:1,2016-03-02T05:36:00Z,26.8015,-97.4706,0.0,2.9,131.0,4.2,'11111222,11111222,11111222' 
TCOON,ioos:station:TCOON:003:1,2016-03-02T05:42:00Z,26.8015,-97.4706,0.0,3.2,140.0,3.7,'11111222,11111222,11111222' 
TCOON,ioos:station:TCOON:003:1,2016-03-02T05:48:00Z,26.8015,-97.4706,0.0,3.3,148.0,3.9,'11111222,11111222,11111222' 
TCOON,ioos:station:TCOON:003:1,2016-03-02T05:54:00Z,26.8015,-97.4706,0.0,3.3,148.0,3.9,'1111122,1111122,1111122' 
TCOON,ioos:station:TCOON:003:1,2016-03-02T06:00:00Z,26.8015,-97.4706,0.0,2.7,153.0,3.1,'11111222,11111222,11111222' 
TCOON,ioos:station:TCOON:003:1,2016-03-02T06:06:00Z,26.8015,-97.4706,0.0,3.2,152.0,3.5,'11111222,11111222,11111222' 